TimePST,TemperatureF,Dew PointF,Humidity,Sea Level PressureIn,VisibilityMPH,Wind Direction,Wind SpeedMPH,Gust SpeedMPH,PrecipitationIn,Events,Conditions,WindDirDegrees,DateUTC
12:52 AM,45.0,35.1,68,30.08,10.0,North,3.5,-,N/A,,Clear,360,2012-11-19 08:52:00
1:52 AM,42.1,34.0,73,30.09,10.0,Calm,Calm,-,N/A,,Clear,0,2012-11-19 09:52:00
2:52 AM,42.1,33.1,70,30.09,10.0,East,3.5,-,N/A,,Clear,80,2012-11-19 10:52:00
3:52 AM,41.0,34.0,76,30.11,10.0,Calm,Calm,-,N/A,,Clear,0,2012-11-19 11:52:00
4:52 AM,41.0,34.0,76,30.12,10.0,East,3.5,-,N/A,,Clear,80,2012-11-19 12:52:00
6:52 AM,39.0,33.1,79,30.18,10.0,ESE,5.8,-,N/A,,Clear,110,2012-11-19 14:52:00
7:52 AM,46.0,36.0,68,30.20,10.0,Calm,Calm,-,N/A,,Clear,0,2012-11-19 15:52:00
8:52 AM,50.0,36.0,59,30.21,10.0,Calm,Calm,-,N/A,,Clear,0,2012-11-19 16:52:00
9:52 AM,55.9,37.0,49,30.21,10.0,Calm,Calm,-,N/A,,Clear,0,2012-11-19 17:52:00
10:52 AM,57.9,37.0,46,30.20,10.0,Calm,Calm,-,N/A,,Clear,0,2012-11-19 18:52:00
11:52 AM,61.0,37.0,41,30.16,10.0,Calm,Calm,-,N/A,,Clear,0,2012-11-19 19:52:00
12:52 PM,62.1,36.0,38,30.15,10.0,South,6.9,-,N/A,,Clear,170,2012-11-19 20:52:00
1:52 PM,64.0,34.0,33,30.14,10.0,West,9.2,19.6,N/A,,Clear,260,2012-11-19 21:52:00
2:52 PM,63.0,34.0,34,30.13,10.0,West,4.6,-,N/A,,Clear,270,2012-11-19 22:52:00
3:52 PM,62.1,34.0,35,30.14,10.0,SW,4.6,-,N/A,,Clear,230,2012-11-19 23:52:00
4:52 PM,57.0,34.0,42,30.17,10.0,NW,4.6,-,N/A,,Clear,320,2012-11-20 00:52:00
5:52 PM,54.0,33.1,45,30.19,10.0,Calm,Calm,-,N/A,,Clear,0,2012-11-20 01:52:00
6:52 PM,50.0,33.1,52,30.20,10.0,East,3.5,-,N/A,,Clear,80,2012-11-20 02:52:00
7:52 PM,48.9,33.1,54,30.20,10.0,Calm,Calm,-,N/A,,Clear,0,2012-11-20 03:52:00
8:52 PM,46.9,33.1,59,30.20,10.0,Calm,Calm,-,N/A,,Clear,0,2012-11-20 04:52:00
9:52 PM,45.0,32.0,60,30.19,10.0,Calm,Calm,-,N/A,,Clear,0,2012-11-20 05:52:00
10:52 PM,44.1,33.1,65,30.20,10.0,East,6.9,-,N/A,,Clear,100,2012-11-20 06:52:00
11:52 PM,44.1,33.1,65,30.18,10.0,Calm,Calm,-,N/A,,Clear,0,2012-11-20 07:52:00